Temp
-5 -6 -5 -5 -6 -6 -6 -6 -6 -6 -6 -6 -6 -5 -6 -5 -5 -5 -5 -5 -5 -5 -5 -5 -5 -5 -5 -5 -5 -6 -5 -5 -5 -6 -6 -7 -7 -7 -7 -7 -7 -7 -7
-5 -5 -6 -6 -6 -6 -6 -6 -6 -6 -6 -6 -6 -6 -6 -6 -6 -5 -5 -5 -5 -5 -5 -5 -5 -5 -5 -5 -5 -5 -5 -5 -5 -5 -6 -6 -7 -7 -7 -7 -7 -7 -7
-6 -6 -5 -6 -6 -6 -6 -6 -6 -6 -7 -7 -7 -6 -6 -6 -6 -6 -5 -5 -5 -5 -5 -5 -5 -5 -6 -5 -5 -5 -5 -5 -5 -5 -6 -6 -7 -7 -7 -7 -7 -7 -7
-7 -6 -6 -6 -6 -6 -7 -7 -7 -7 -7 -7 -7 -7 -7 -6 -6 -6 -6 -6 -6 -6 -6 -6 -5 -6 -6 -6 -6 -6 -6 -6 -6 -6 -6 -6 -6 -7 -7 -6 -7 -7 -7
-6 -6 -6 -7 -7 -7 -7 -7 -7 -7 -7 -7 -7 -7 -7 -7 -7 -7 -6 -7 -6 -6 -6 -6 -6 -6 -6 -6 -6 -6 -6 -5 -6 -6 -6 -6 -6 -6 -6 -6 -6 -6 -6
-6 -6 -7 -6 -7 -7 -7 -8 -7 -8 -8 -7 -7 -7 -7 -7 -7 -7 -7 -7 -6 -6 -6 -7 -7 -6 -6 -6 -6 -6 -6 -6 -6 -6 -5 -5 -6 -6 -6 -6 -6 -6 -6
-6 -6 -6 -7 -7 -7 -8 -8 -7 -8 -8 -8 -8 -7 -7 -7 -7 -6 -6 -7 -7 -7 -6 -6 -6 -6 -6 -6 -6 -6 -6 -6 -5 -5 -5 -6 -6 -7 -7 -7 -6 -6 -6
-6 -6 -5 -5 -6 -7 -7 -7 -8 -7 -7 -7 -6 -6 -5 -6 -6 -6 -6 -7 -7 -7 -7 -7 -7 -6 -6 -6 -6 -6 -6 -6 -6 -5 -5 -5 -6 -7 -7 -7 -7 -7 -6
-7 -6 -6 -6 -5 -6 -6 -6 -6 -6 -6 -6 -6 -7 -7 -7 -7 -7 -7 -7 -7 -8 -7 -7 -7 -7 -7 -7 -6 -6 -6 -6 -5 -5 -5 -5 -6 -7 -6 -7 -7 -7 -7
-6 -6 -5 -6 -5 -6 -7 -6 -6 -6 -6 -6 -6 -7 -7 -8 -7 -7 -8 -8 -8 -8 -8 -8 -8 -8 -8 -7 -7 -6 -6 -6 -6 -5 -5 -5 -5 -6 -7 -7 -7 -6 -7
-7 -7 -7 -7 -6 -6 -7 -6 -6 -6 -8 -7 -7 -7 -7 -7 -7 -7 -8 -7 -7 -8 -8 -8 -7 -7 -8 -8 -7 -6 -6 -5 -5 -5 -5 -5 -5 -6 -6 -7 -8 -8 -8
-6 -6 -6 -6 -7 -6 -7 -6 -6 -7 -7 -7 -8 -7 -6 -7 -7 -7 -7 -7 -7 -7 -8 -6 -7 -7 -8 -8 -7 -6 -5 -5 -5 -5 -5 -5 -5 -6 -6 -6 -7 -9 -8
-8 -6 -7 -7 -8 -8 -8 -8 -6 -7 -6 -7 -7 -8 -7 -8 -8 -8 -7 -7 -7 -8 -7 -6 -8 -8 -8 -7 -6 -6 -6 -6 -6 -6 -5 -5 -5 -6 -6 -7 -7 -8 -7
-8 -8 -8 -7 -7 -7 -7 -7 -7 -7 -7 -8 -8 -9 -8 -7 -7 -6 -5 -6 -6 -6 -6 -7 -8 -8 -8 -7 -7 -7 -6 -6 -6 -5 -5 -5 -5 -5 -6 -6 -7 -8 -7
-10 -10 -8 -8 -8 -8 -8 -8 -7 -9 -10 -9 -8 -9 -9 -9 -8 -8 -7 -7 -7 -7 -7 -7 -8 -8 -8 -7 -7 -7 -7 -6 -6 -6 -6 -6 -6 -6 -6 -7 -7 -8 -8
-9 -10 -10 -11 -11 -11 -10 -10 -10 -11 -10 -9 -8 -9 -9 -9 -9 -9 -8 -8 -8 -8 -9 -8 -8 -8 -8 -8 -7 -7 -7 -7 -6 -6 -6 -7 -7 -7 -7 -7 -7 -7 -7
-11 -11 -12 -11 -11 -11 -10 -11 -11 -11 -11 -9 -9 -9 -9 -9 -9 -9 -9 -8 -9 -9 -9 -9 -9 -9 -8 -8 -8 -8 -7 -7 -7 -6 -6 -6 -7 -8 -8 -8 -8 -8 -8
-12 -12 -13 -11 -11 -11 -11 -11 -11 -9 -8 -9 -9 -9 -10 -10 -10 -10 -10 -9 -9 -9 -10 -9 -10 -9 -9 -8 -8 -8 -8 -8 -8 -7 -7 -7 -8 -8 -9 -9 -9 -9 -8
-13 -12 -12 -12 -12 -13 -13 -12 -12 -11 -12 -12 -11 -11 -11 -12 -12 -12 -12 -12 -11 -11 -10 -10 -10 -9 -9 -9 -9 -9 -9 -8 -8 -8 -8 -8 -8 -8 -9 -9 -9 -9 -9
-13 -13 -13 -13 -13 -13 -13 -13 -13 -13 -12 -13 -13 -12 -12 -13 -12 -12 -12 -12 -12 -12 -12 -12 -11 -11 -10 -10 -10 -10 -10 -9 -9 -9 -9 -8 -8 -9 -9 -9 -9 -9 -9
-13 -13 -13 -13 -13 -13 -13 -13 -13 -13 -13 -13 -13 -13 -13 -14 -13 -13 -13 -13 -13 -13 -13 -13 -13 -12 -12 -12 -12 -11 -11 -11 -10 -10 -10 -9 -9 -9 -9 -9 -9 -9 -9
-13 -13 -13 -13 -13 -13 -13 -13 -13 -13 -13 -13 -13 -13 -13 -13 -13 -13 -14 -14 -14 -14 -14 -14 -14 -14 -13 -13 -13 -12 -12 -12 -12 -11 -11 -10 -10 -10 -10 -10 -10 -10 -11
-13 -13 -13 -13 -13 -13 -13 -13 -13 -13 -13 -13 -13 -14 -14 -13 -13 -13 -13 -13 -14 -14 -14 -14 -15 -15 -14 -14 -14 -14 -14 -13 -13 -13 -12 -12 -12 -12 -12 -11 -11 -11 -11
-16 -15 -15 -14 -14 -14 -14 -14 -14 -14 -14 -14 -14 -14 -15 -15 -15 -15 -15 -15 -15 -15 -15 -15 -15 -15 -15 -15 -15 -15 -14 -14 -14 -14 -14 -13 -13 -13 -13 -13 -13 -13 -13
-16 -16 -16 -16 -16 -15 -15 -15 -15 -15 -15 -15 -15 -15 -15 -16 -15 -15 -16 -16 -16 -16 -16 -16 -15 -16 -16 -15 -15 -15 -15 -15 -15 -15 -15 -14 -14 -14 -14 -14 -14 -14 -14
-16 -16 -16 -16 -16 -16 -16 -16 -16 -16 -16 -16 -16 -16 -16 -16 -16 -16 -16 -16 -16 -16 -16 -16 -16 -16 -16 -16 -17 -17 -16 -16 -16 -15 -15 -15 -15 -15 -15 -15 -14 -14 -14
Height
5909 5912 5915 5919 5921 5923 5926 5929 5932 5933 5934 5935 5936 5936 5936 5936 5938 5939 5939 5940 5941 5942 5943 5943 5945 5944 5944 5945 5945 5945 5943 5942 5942 5942 5939 5935 5933 5930 5925 5921 5917 5914 5910
5902 5905 5909 5912 5915 5918 5921 5923 5925 5927 5929 5929 5930 5932 5932 5931 5932 5934 5935 5937 5937 5936 5937 5938 5939 5938 5939 5938 5939 5938 5938 5936 5936 5936 5934 5932 5929 5925 5921 5918 5913 5910 5906
5895 5899 5902 5906 5909 5912 5913 5914 5917 5919 5920 5922 5923 5924 5924 5926 5927 5928 5929 5931 5931 5930 5929 5930 5931 5932 5932 5932 5932 5931 5930 5929 5928 5929 5929 5927 5925 5920 5916 5912 5910 5907 5902
5887 5891 5895 5899 5901 5904 5905 5906 5908 5910 5912 5913 5914 5915 5916 5918 5920 5922 5922 5923 5923 5923 5924 5924 5924 5926 5926 5926 5925 5924 5922 5921 5920 5919 5919 5918 5916 5912 5909 5906 5906 5901 5897
5878 5883 5887 5890 5892 5895 5897 5899 5900 5901 5903 5904 5905 5906 5907 5910 5913 5915 5915 5915 5917 5918 5918 5918 5918 5918 5919 5918 5917 5916 5915 5914 5912 5910 5909 5909 5908 5905 5902 5900 5897 5897 5891
5868 5873 5876 5879 5882 5886 5888 5890 5891 5893 5894 5895 5896 5898 5900 5902 5903 5904 5905 5906 5908 5910 5910 5910 5910 5910 5909 5910 5910 5909 5908 5907 5905 5902 5901 5900 5896 5895 5892 5890 5890 5889 5886
5861 5862 5865 5868 5871 5875 5878 5879 5881 5884 5884 5886 5888 5890 5891 5891 5891 5892 5895 5899 5901 5902 5902 5902 5902 5902 5902 5901 5901 5901 5899 5898 5896 5895 5893 5891 5889 5884 5883 5884 5882 5881 5878
5850 5854 5856 5861 5863 5864 5867 5869 5871 5873 5876 5879 5881 5883 5885 5885 5885 5886 5888 5892 5894 5894 5894 5894 5895 5894 5895 5893 5893 5892 5889 5887 5885 5883 5884 5884 5879 5876 5874 5875 5875 5872 5871
5839 5846 5848 5845 5848 5855 5857 5858 5862 5864 5867 5870 5873 5875 5876 5877 5879 5878 5879 5881 5882 5883 5882 5884 5885 5888 5887 5885 5886 5885 5883 5878 5874 5872 5872 5870 5867 5864 5863 5866 5866 5864 5864
5828 5826 5835 5838 5841 5842 5844 5847 5849 5852 5857 5859 5861 5862 5863 5863 5864 5866 5866 5867 5869 5872 5873 5873 5875 5877 5878 5878 5877 5876 5874 5870 5866 5863 5861 5860 5859 5855 5856 5856 5857 5857 5857
5816 5821 5826 5826 5828 5832 5827 5826 5833 5841 5847 5848 5849 5844 5848 5850 5853 5857 5858 5859 5859 5861 5864 5863 5861 5867 5868 5868 5869 5868 5866 5861 5857 5855 5853 5849 5847 5845 5845 5847 5847 5849 5851
5798 5807 5810 5807 5816 5820 5813 5818 5824 5829 5835 5837 5836 5837 5838 5844 5848 5845 5846 5843 5848 5851 5855 5855 5855 5854 5858 5860 5861 5859 5855 5852 5848 5846 5845 5842 5839 5838 5837 5837 5837 5840 5842
5795 5797 5800 5788 5803 5809 5812 5815 5821 5820 5824 5825 5830 5833 5834 5837 5840 5840 5840 5841 5844 5845 5846 5848 5847 5847 5850 5855 5853 5850 5846 5845 5842 5840 5838 5836 5832 5829 5829 5830 5830 5833 5836
5784 5781 5788 5788 5794 5796 5801 5800 5809 5808 5810 5816 5817 5818 5824 5827 5829 5830 5831 5832 5834 5836 5838 5839 5841 5842 5845 5844 5842 5841 5841 5839 5836 5835 5833 5832 5829 5826 5826 5828 5827 5827 5830
5768 5769 5774 5778 5783 5788 5789 5790 5795 5795 5799 5806 5808 5813 5815 5816 5818 5818 5821 5824 5825 5826 5829 5831 5833 5835 5837 5834 5833 5832 5832 5834 5832 5829 5828 5826 5825 5824 5824 5824 5823 5823 5824
5762 5761 5761 5765 5771 5775 5778 5781 5787 5791 5796 5799 5803 5806 5807 5809 5811 5812 5815 5816 5819 5820 5822 5823 5824 5824 5823 5822 5823 5825 5825 5824 5824 5824 5821 5818 5818 5817 5818 5817 5816 5815 5815
5750 5754 5758 5760 5762 5764 5768 5772 5776 5781 5786 5789 5791 5793 5794 5795 5797 5799 5802 5805 5807 5809 5810 5812 5813 5813 5812 5812 5812 5813 5812 5813 5813 5812 5812 5811 5810 5808 5808 5807 5808 5807 5806
5743 5746 5747 5749 5750 5754 5758 5763 5763 5763 5769 5772 5773 5774 5778 5781 5782 5785 5786 5788 5791 5793 5794 5795 5796 5797 5798 5799 5799 5799 5798 5798 5797 5797 5796 5796 5796 5795 5794 5795 5795 5794 5793
5733 5737 5738 5739 5741 5745 5747 5749 5751 5749 5750 5752 5756 5758 5761 5764 5766 5767 5770 5771 5773 5775 5777 5780 5780 5780 5780 5781 5781 5781 5782 5782 5782 5781 5781 5781 5781 5781 5781 5781 5780 5779 5779
5724 5726 5728 5729 5731 5735 5738 5739 5740 5742 5742 5744 5746 5747 5751 5756 5756 5756 5757 5759 5758 5759 5761 5762 5763 5763 5763 5762 5762 5762 5763 5763 5764 5763 5762 5762 5762 5762 5762 5763 5763 5763 5763
5715 5717 5720 5721 5724 5726 5728 5729 5730 5729 5731 5732 5733 5736 5738 5739 5739 5741 5742 5743 5744 5745 5745 5745 5745 5745 5746 5746 5745 5745 5745 5744 5745 5743 5743 5743 5743 5743 5742 5742 5743 5743 5744
5709 5709 5711 5712 5713 5714 5715 5717 5717 5718 5718 5719 5720 5721 5723 5725 5727 5728 5727 5727 5727 5727 5726 5726 5726 5726 5726 5726 5726 5726 5727 5727 5727 5726 5725 5725 5726 5725 5723 5723 5723 5722 5723
5703 5702 5702 5702 5701 5701 5702 5704 5705 5705 5706 5707 5708 5708 5708 5710 5710 5710 5710 5710 5710 5709 5709 5708 5707 5706 5706 5706 5705 5705 5704 5705 5706 5706 5707 5707 5706 5705 5704 5704 5703 5703 5703
5687 5690 5692 5693 5693 5694 5692 5692 5692 5691 5691 5691 5692 5693 5692 5691 5691 5690 5691 5692 5693 5692 5691 5690 5688 5687 5686 5685 5685 5684 5683 5683 5682 5682 5682 5684 5684 5684 5684 5683 5682 5682 5682
5671 5672 5674 5676 5677 5678 5679 5680 5679 5677 5676 5675 5675 5675 5675 5675 5675 5675 5674 5673 5673 5671 5671 5670 5668 5668 5667 5665 5664 5663 5662 5662 5662 5661 5660 5661 5661 5661 5662 5663 5663 5662 5661
5662 5659 5657 5656 5657 5659 5659 5661 5661 5660 5659 5659 5660 5658 5657 5657 5657 5656 5656 5655 5653 5652 5650 5647 5647 5646 5645 5643 5641 5640 5639 5638 5639 5639 5639 5638 5637 5634 5634 5635 5637 5639 5638
Wind_Speed
31 30 29 28 28 29 28 26 24 24 25 23 22 20 22 22 24 23 25 25 25 26 25 25 24 25 25 23 24 24 27 27 26 27 29 33 35 35 37 36 37 38 40
29 31 32 32 31 29 28 27 28 26 27 27 27 25 24 25 26 25 27 27 27 25 26 27 28 30 30 29 29 29 29 31 29 28 30 31 32 34 34 34 37 38 40
33 29 30 31 33 32 33 34 34 33 32 32 31 31 30 29 28 29 30 31 31 30 32 31 32 31 31 32 32 31 32 32 33 30 28 30 30 33 34 37 37 37 38
35 35 32 30 30 31 35 38 39 37 37 37 36 37 36 34 33 33 33 34 35 35 34 33 33 32 31 32 33 33 35 34 34 34 31 31 30 32 33 35 34 38 37
39 37 36 35 34 33 32 33 35 35 37 38 38 40 40 39 36 36 37 36 35 36 34 34 34 35 35 35 37 37 37 36 37 36 34 32 32 34 34 34 36 33 36
44 40 41 41 39 37 37 36 38 37 35 35 36 37 39 40 39 39 40 39 38 37 36 36 36 37 37 38 37 38 39 39 39 39 36 34 34 36 38 35 34 34 33
45 44 43 43 44 42 42 43 43 42 41 39 38 39 39 41 43 44 42 40 38 38 38 39 39 38 37 36 36 36 38 40 40 39 38 41 38 40 38 37 34 30 32
39 41 43 41 46 47 44 45 47 45 45 45 44 43 42 42 42 41 40 38 37 38 39 39 38 38 35 34 32 35 39 42 43 41 37 42 47 44 43 35 32 27 27
47 45 46 45 37 46 48 48 46 44 41 42 41 40 39 39 38 39 35 34 34 35 35 35 36 33 32 35 34 34 37 36 38 37 39 40 39 37 36 35 34 28 24
48 48 52 41 48 48 52 48 42 42 40 40 42 43 44 43 39 41 39 37 38 40 38 40 35 34 36 31 32 29 32 34 36 37 41 43 45 42 38 40 29 29 24
60 49 50 48 51 49 46 43 36 41 41 42 44 41 44 35 38 43 42 44 39 36 38 40 35 26 31 23 25 29 30 30 32 32 35 39 38 33 39 39 29 26 28
56 47 49 62 53 36 42 45 35 39 44 48 54 48 46 49 42 43 27 48 39 34 25 20 20 14 17 19 26 26 23 26 25 25 25 28 26 25 29 35 34 31 25
43 60 65 49 51 61 61 57 51 56 47 45 56 44 52 47 41 23 22 11 15 15 19 18 16 16 20 27 28 23 22 23 23 24 26 25 29 21 21 27 28 22 20
55 43 64 50 51 58 51 39 59 47 41 33 28 20 19 19 17 25 28 24 28 27 24 16 24 27 27 23 20 21 24 25 22 22 21 21 20 14 15 17 16 18 24
58 47 53 46 41 35 31 34 50 25 22 23 21 21 22 22 21 20 20 23 24 25 20 21 31 31 30 24 23 24 24 26 26 25 21 20 19 18 19 23 23 22 24
49 41 48 53 43 40 32 22 25 27 29 29 32 33 31 28 28 28 25 22 23 22 24 30 34 34 35 31 28 28 30 32 32 32 28 23 22 22 23 23 24 27 32
30 33 32 36 36 32 36 35 36 33 37 41 40 39 38 38 37 36 35 33 27 27 28 32 37 41 40 38 39 42 43 43 39 37 38 36 32 32 32 34 34 35 37
22 25 28 30 33 31 31 35 39 44 48 45 49 47 40 36 35 34 33 33 34 33 35 38 41 44 46 46 45 45 46 47 45 45 44 43 43 41 40 42 43 43 42
19 21 20 20 23 29 34 34 33 24 30 34 39 37 39 37 36 36 36 37 37 38 41 44 46 48 50 51 50 49 49 49 49 48 48 48 49 49 49 49 50 49 48
18 21 20 19 19 20 23 25 28 31 31 32 33 34 37 34 36 42 41 39 45 47 46 47 49 51 53 54 54 53 54 54 54 53 53 54 55 56 56 57 58 58 59
21 23 24 24 24 25 25 27 28 28 30 31 33 34 37 39 41 42 43 44 45 47 48 49 50 52 53 54 55 55 56 56 57 58 58 58 58 59 59 60 60 62 63
24 24 26 27 28 29 29 31 31 33 33 34 35 37 38 39 42 44 45 47 49 49 50 51 52 53 53 53 55 57 57 58 58 58 58 60 61 63 65 66 66 65 64
26 27 29 31 33 34 36 39 40 40 40 39 40 41 43 45 46 47 48 50 49 50 51 52 54 55 55 55 56 56 58 58 60 61 61 61 62 63 64 66 67 68 68
30 30 32 34 35 38 40 42 43 45 46 47 47 47 48 49 50 50 50 50 51 52 53 54 55 55 56 57 58 58 59 59 59 60 60 62 63 64 65 66 66 67 68
42 42 42 41 41 43 45 47 48 49 50 51 52 53 53 53 54 55 55 54 54 54 55 56 57 58 57 61 61 62 63 63 64 65 64 66 67 68 69 70 69 69 69
48 51 51 50 51 49 48 51 53 52 52 53 53 53 54 55 53 53 54 55 57 57 57 57 57 57 57 57 57 57 57 59 60 60 61 62 63 66 68 70 72 75 76
Wind_Direction
226 225 228 225 225 231 235 238 238 240 246 244 246 239 236 242 242 240 238 240 242 246 250 254 258 262 264 266 272 277 283 291 296 292 296 300 307 314 314 317 319 325 328
229 228 227 229 229 229 235 237 239 242 248 249 250 249 247 241 243 247 249 247 244 246 251 256 259 262 267 270 274 280 286 289 294 297 297 301 305 308 309 312 313 320 323
230 228 232 233 235 236 236 238 241 244 245 248 250 251 248 247 245 244 246 250 251 251 255 258 259 262 266 271 275 279 281 285 289 294 298 299 301 300 304 306 310 316 319
227 229 230 232 232 232 236 240 242 242 245 246 247 251 252 250 250 250 247 249 251 251 253 259 263 266 267 270 274 278 280 284 287 290 291 292 294 293 295 298 306 312 313
226 231 233 231 235 236 239 242 242 245 246 249 249 251 254 257 258 258 258 256 256 257 260 263 265 269 271 271 274 277 280 283 285 287 288 292 292 290 292 298 303 310 307
226 227 231 235 234 236 239 240 242 247 249 248 251 252 254 257 256 256 258 257 258 262 264 266 267 266 269 275 279 281 283 286 287 287 289 289 287 291 290 292 298 306 308
236 229 230 234 236 235 237 241 243 244 246 249 250 250 249 252 255 257 258 260 259 260 262 265 268 272 273 275 278 284 287 288 288 290 292 291 287 285 286 293 297 301 304
229 238 236 241 242 241 240 242 244 248 248 251 255 256 256 256 259 261 263 264 265 264 264 267 268 270 275 276 280 284 287 287 286 288 286 294 290 286 286 283 289 290 295
225 227 234 241 241 242 244 245 246 253 258 262 263 263 264 263 265 265 264 262 261 261 262 264 265 270 274 275 277 284 286 287 284 289 291 298 297 286 280 283 281 277 286
219 228 228 233 237 248 243 245 244 252 257 259 262 261 261 260 257 260 252 249 252 255 257 259 259 255 253 268 280 286 290 294 294 295 293 285 287 284 283 283 264 265 270
224 225 233 233 230 233 237 241 231 245 251 256 260 252 259 264 266 261 260 254 248 248 249 262 255 254 264 267 282 285 287 293 296 296 294 290 290 282 281 278 259 257 262
236 226 232 228 229 224 222 231 242 238 249 250 253 264 263 264 263 286 274 257 249 254 277 314 290 274 260 273 277 285 297 301 299 298 306 303 296 280 276 285 264 252 258
242 247 238 239 222 235 245 247 245 251 250 258 254 261 261 265 265 304 289 312 305 294 301 279 255 243 256 263 272 284 290 300 303 301 306 304 301 278 274 269 264 254 252
240 261 227 230 235 229 236 234 239 243 243 259 248 296 297 287 286 289 293 302 305 305 305 268 239 245 255 265 276 283 288 290 295 303 305 305 305 285 275 270 248 240 254
267 274 243 255 244 244 240 252 242 254 275 277 281 293 302 302 308 306 305 304 303 302 290 254 229 241 257 270 284 285 282 283 285 287 290 293 292 289 270 259 253 262 270
262 274 276 283 288 277 279 270 268 269 277 275 273 280 288 293 294 295 295 285 283 273 255 239 234 245 257 263 268 275 283 282 280 278 274 273 270 263 262 262 259 260 264
256 267 277 282 284 277 272 271 273 274 272 273 267 272 278 285 286 289 289 288 281 269 261 252 254 253 259 263 268 274 276 281 276 272 275 268 264 260 256 256 258 258 261
250 250 261 269 271 265 257 260 264 265 271 270 271 274 271 267 267 267 267 268 272 264 257 257 256 256 258 265 269 270 271 270 265 263 263 261 258 254 255 257 258 258 258
255 257 255 259 269 262 256 246 251 256 260 261 263 268 264 261 259 261 260 260 253 259 257 258 259 261 262 262 262 263 263 263 262 261 262 263 262 260 258 258 260 259 261
269 269 263 261 259 261 261 257 257 261 265 265 266 264 268 257 262 264 267 256 252 261 261 260 260 261 262 263 263 262 261 260 259 259 260 260 260 260 258 257 256 257 260
257 261 266 263 263 266 268 270 270 269 270 272 272 271 272 271 272 271 270 268 268 268 268 268 267 266 266 266 267 267 265 264 263 261 258 257 257 258 259 259 259 259 260
250 256 266 271 275 275 272 270 270 270 270 269 268 269 269 270 271 271 271 271 269 270 270 269 269 269 268 267 266 267 267 266 264 262 262 262 261 261 261 260 260 259 260
250 254 258 266 270 272 274 277 276 274 272 271 271 273 274 273 272 272 272 272 271 270 269 269 269 269 269 268 266 265 264 264 264 266 266 265 263 262 261 262 263 264 264
263 259 256 255 258 262 267 269 269 270 271 272 272 271 271 272 274 275 274 274 272 270 269 268 268 267 268 268 268 268 267 266 265 265 265 265 266 266 266 265 265 265 267
274 274 274 271 268 265 263 263 264 267 270 273 274 274 274 274 274 274 275 275 275 275 276 275 273 272 272 272 272 272 271 272 272 271 269 268 268 268 268 268 267 268 267
276 277 279 281 280 278 277 277 275 274 273 275 276 277 278 277 276 275 275 275 275 276 276 275 276 275 274 272 271 271 271 269 270 270 270 270 269 268 267 267 267 267 266